Bartow, FL

1:32 AM EST on December 06, 2016 (GMT -0500)
Bartow Municipal

Weather History for KBOW - September, 2013

Change the Weather History Date:

Tuesday, September 17, 2013

  Actual Average Record
Temperature  
Mean Temperature 78 °F -  
Max Temperature 86 °F 90 °F 97 °F (1933)
Min Temperature 71 °F 71 °F 64 °F (1932)
Cooling Degree Days 14    
Growing Degree Days 28 (Base 50)    
Moisture  
Dew Point 72 °F    
Average Humidity 88    
Maximum Humidity 100    
Minimum Humidity 62    
Precipitation  
Precipitation 0.00 in - - ()
Sea Level Pressure  
Sea Level Pressure 30.02 in    
Wind  
Wind Speed 3 mph (ENE)    
Max Wind Speed 21 mph    
Max Gust Speed 29 mph    
Visibility 8 miles    
Events Rain    
Averages and records for this station are not official NWS values.
T = Trace of Precipitation, MM = Missing Value Source: NWS Daily Summary

Daily Weather History Graph

Daily Weather History Graph

Search for Another Location

Airport or City:

Trip Planner

Search our weather history database for the weather conditions in past years. The results will help you decide how hot, cold, wet, or windy it might be!

Date:

Astronomy

Sep. 17, 2013 Rise Set
Actual Time 7:13 AM EDT 7:29 PM EDT
Civil Twilight 6:49 AM EDT 7:52 PM EDT
Nautical Twilight 6:22 AM EDT 8:19 PM EDT
Astronomical Twilight 5:54 AM EDT 8:47 PM EDT
Moon 6:11 PM EDT (9/17) 5:13 AM EDT (9/17)
Length of Visible Light 13h 02m
Length of Day
12h 15m
Waxing Gibbous, 96% of the Moon is Illuminated
Sep 17
Waxing Gibbous
Sep 19
Full
Sep 26
Last Quarter
Oct 4
New
Oct 11
First Quarter

Hourly Weather History & Observations

Time (EDT) Temp. Heat Index Dew Point Humidity Pressure Visibility Wind Dir Wind Speed Gust Speed Precip Events Conditions
12:15 AM 71.6 °F - - N/A% 30.04 in 8.0 mi Calm Calm - N/A   Clear
12:35 AM 71.6 °F - - N/A% 30.04 in 9.0 mi Calm Calm - N/A   Clear
12:55 AM 71.6 °F - - N/A% 30.04 in 9.0 mi Calm Calm - N/A   Clear
1:15 AM 71.6 °F - - N/A% 30.04 in 9.0 mi Calm Calm - N/A   Clear
1:35 AM 71.6 °F - - N/A% 30.04 in 9.0 mi Calm Calm - N/A   Clear
1:55 AM 71.6 °F - - N/A% 30.04 in 9.0 mi Calm Calm - N/A   Clear
2:15 AM 71.6 °F - - N/A% 30.03 in 10.0 mi Calm Calm - N/A   Clear
2:35 AM 71.6 °F - - N/A% 30.02 in 9.0 mi Calm Calm - N/A   Clear
2:55 AM 71.6 °F - - N/A% 30.02 in 9.0 mi Calm Calm - N/A   Clear
3:15 AM 71.6 °F - - N/A% 30.01 in 8.0 mi Calm Calm - N/A   Clear
3:35 AM 71.6 °F - - N/A% 30.01 in 10.0 mi Calm Calm - N/A   Clear
3:55 AM 71.6 °F - - N/A% 30.02 in 10.0 mi Calm Calm - N/A   Clear
4:15 AM 73.4 °F - 73.4 °F 100% 30.02 in 8.0 mi Calm Calm - N/A   Clear
4:35 AM 73.4 °F - 73.4 °F 100% 30.02 in 8.0 mi NE 5.8 mph - N/A   Clear
4:55 AM 73.4 °F - 73.4 °F 100% 30.02 in 8.0 mi NE 6.9 mph - N/A   Clear
5:15 AM 73.4 °F - 73.4 °F 100% 30.02 in 9.0 mi NE 4.6 mph - N/A   Clear
5:35 AM 73.4 °F - 73.4 °F 100% 30.02 in 9.0 mi NNE 5.8 mph - N/A   Clear
5:55 AM 73.4 °F - 73.4 °F 100% 30.02 in 8.0 mi Calm Calm - N/A   Clear
6:15 AM 73.4 °F - - N/A% 30.03 in 9.0 mi NNE 5.8 mph - N/A   Partly Cloudy
6:35 AM 73.4 °F - 73.4 °F 100% 30.03 in 8.0 mi NNE 4.6 mph - N/A   Clear
6:55 AM 73.4 °F - 73.4 °F 100% 30.04 in 9.0 mi NNE 5.8 mph - N/A   Clear
7:15 AM 73.4 °F - 73.4 °F 100% 30.04 in 8.0 mi NNE 5.8 mph - N/A   Clear
9:30 AM 78.8 °F - 73.4 °F 83% 30.07 in 7.0 mi ENE 9.2 mph - N/A   Clear
10:47 AM 82.4 °F 87.2 °F 71.6 °F 70% 30.08 in 7.0 mi ENE 9.2 mph - N/A   Scattered Clouds
11:48 AM 82.4 °F 87.2 °F 71.6 °F 70% 30.08 in 7.0 mi NE 9.2 mph - N/A   Mostly Cloudy
12:50 PM 86.0 °F 91.8 °F 71.6 °F 62% 30.05 in 7.0 mi ENE 9.2 mph - N/A   Scattered Clouds
1:47 PM 82.4 °F 87.2 °F 71.6 °F 70% 30.04 in 5.0 mi East 20.7 mph 28.8 mph N/A Rain Light Rain
2:50 PM 75.2 °F - 73.4 °F 94% 30.01 in 7.0 mi East 4.6 mph - N/A   Mostly Cloudy
3:35 PM 80.6 °F 85.4 °F 73.4 °F 79% 29.99 in - NE 6.9 mph - N/A   Scattered Clouds
3:55 PM 84.2 °F 90.9 °F 73.4 °F 70% 29.99 in - East 10.4 mph - N/A   Scattered Clouds
4:15 PM 82.4 °F 86.3 °F 69.8 °F 66% 29.98 in - East 11.5 mph 17.3 mph N/A   Mostly Cloudy
4:35 PM 82.4 °F 86.3 °F 69.8 °F 66% 29.98 in - East 6.9 mph - N/A   Scattered Clouds
4:55 PM 82.4 °F 87.2 °F 71.6 °F 70% 29.98 in - East 10.4 mph 16.1 mph N/A   Partly Cloudy
5:15 PM 82.4 °F 85.4 °F 68.0 °F 62% 29.99 in - East 12.7 mph 21.9 mph N/A   Partly Cloudy
5:35 PM 82.4 °F 86.3 °F 69.8 °F 66% 29.99 in - East 10.4 mph - N/A   Scattered Clouds
5:55 PM 82.4 °F 87.2 °F 71.6 °F 70% 29.99 in - East 8.1 mph - N/A   Scattered Clouds
6:15 PM 78.8 °F - 69.8 °F 74% 30.00 in - ENE 11.5 mph 21.9 mph N/A   Mostly Cloudy
6:35 PM 77.0 °F - 73.4 °F 89% 30.01 in - SSE 8.1 mph - N/A   Unknown
6:55 PM 75.2 °F - 73.4 °F 94% 30.01 in - SSE 8.1 mph - N/A   Unknown
7:15 PM 75.2 °F - 75.2 °F 100% 30.02 in - ESE 9.2 mph - N/A   Unknown
7:35 PM 73.4 °F - 73.4 °F 100% 30.01 in - East 4.6 mph - N/A   Unknown
7:55 PM 73.4 °F - 73.4 °F 100% 30.01 in - NE 3.5 mph - N/A   Unknown
8:15 PM 73.4 °F - 73.4 °F 100% 29.99 in - Calm Calm - N/A   Unknown
8:35 PM 73.4 °F - 73.4 °F 100% 29.99 in - ENE 4.6 mph - N/A   Unknown
8:55 PM 73.4 °F - 73.4 °F 100% 30.00 in - Calm Calm - N/A   Unknown
9:15 PM 73.4 °F - 73.4 °F 100% 30.00 in - ENE 8.1 mph - N/A   Unknown
9:35 PM 75.2 °F - 71.6 °F 89% 30.01 in - ENE 4.6 mph - N/A   Unknown
9:55 PM 75.2 °F - 71.6 °F 89% 30.02 in - NE 4.6 mph - N/A   Unknown
10:15 PM 73.4 °F - 71.6 °F 94% 30.02 in - ENE 5.8 mph - N/A   Unknown
10:35 PM 73.4 °F - 71.6 °F 94% 30.02 in - NE 5.8 mph - N/A   Unknown
10:55 PM 73.4 °F - 71.6 °F 94% 30.03 in - NE 5.8 mph - N/A   Unknown
11:15 PM 73.4 °F - 73.4 °F 100% 30.03 in - Calm Calm - N/A   Unknown
11:35 PM 73.4 °F - 73.4 °F 100% 30.03 in - Calm Calm - N/A   Unknown
11:55 PM 73.4 °F - 73.4 °F 100% 30.03 in - Calm Calm - N/A   Unknown